TimeEDT,TemperatureF,Dew PointF,Humidity,Sea Level PressureIn,VisibilityMPH,Wind Direction,Wind SpeedMPH,Gust SpeedMPH,PrecipitationIn,Events,Conditions,WindDirDegrees,DateUTC
12:00 AM,91.9,75.9,59,29.83,-9999.0,SW,6.9,-,N/A,,Clear,230,2013-07-20 04:00:00
1:00 AM,91.0,75.9,61,29.84,-9999.0,WSW,6.9,-,N/A,,Clear,240,2013-07-20 05:00:00
2:00 AM,90.0,73.9,59,29.84,-9999.0,WSW,8.1,-,N/A,,Clear,250,2013-07-20 06:00:00
3:00 AM,89.1,73.0,59,29.83,-9999.0,WSW,8.1,-,N/A,,Clear,240,2013-07-20 07:00:00
4:00 AM,87.1,72.0,61,29.81,-9999.0,SW,5.8,-,N/A,,Clear,230,2013-07-20 08:00:00
5:00 AM,87.1,73.0,63,29.81,-9999.0,SW,6.9,-,N/A,,Clear,230,2013-07-20 09:00:00
6:00 AM,87.1,73.0,63,29.83,-9999.0,WSW,5.8,-,N/A,,Clear,250,2013-07-20 10:00:00
7:00 AM,88.0,73.0,61,29.84,-9999.0,WSW,9.2,-,N/A,,Clear,250,2013-07-20 11:00:00
8:00 AM,90.0,73.0,57,29.84,-9999.0,WSW,11.5,-,N/A,,Clear,250,2013-07-20 12:00:00
9:00 AM,91.9,73.9,55,29.83,-9999.0,WSW,6.9,-,N/A,,Clear,250,2013-07-20 13:00:00
10:00 AM,93.9,73.9,52,29.83,-9999.0,WSW,15.0,19.6,N/A,,Clear,250,2013-07-20 14:00:00
11:00 AM,96.1,73.0,47,29.82,-9999.0,West,11.5,-,N/A,,Clear,260,2013-07-20 15:00:00
12:00 PM,97.0,73.9,47,29.81,-9999.0,WSW,13.8,-,N/A,,Partly Cloudy,240,2013-07-20 16:00:00
1:00 PM,102.0,73.0,39,29.79,-9999.0,WSW,12.7,18.4,N/A,,Clear,250,2013-07-20 17:00:00
2:00 PM,102.9,71.1,36,29.77,-9999.0,WSW,12.7,23.0,N/A,,Clear,250,2013-07-20 18:00:00
3:00 PM,102.9,71.1,36,29.75,-9999.0,SW,18.4,27.6,N/A,,Clear,230,2013-07-20 19:00:00
4:00 PM,100.9,72.0,39,29.74,-9999.0,SW,15.0,19.6,N/A,,Scattered Clouds,230,2013-07-20 20:00:00
5:00 PM,100.0,72.0,40,29.75,-9999.0,West,18.4,25.3,N/A,,Partly Cloudy,270,2013-07-20 21:00:00
5:49 PM,98.6,71.6,42,29.76,-9999.0,West,15.0,20.7,N/A,Thunderstorm,Thunderstorm,270,2013-07-20 21:49:00
6:00 PM,98.1,70.0,40,29.76,-9999.0,West,11.5,-,N/A,Thunderstorm,Thunderstorm,270,2013-07-20 22:00:00
6:18 PM,98.6,71.6,42,29.77,-9999.0,WSW,8.1,-,N/A,,Clear,250,2013-07-20 22:18:00
7:00 PM,99.0,72.0,42,29.76,-9999.0,WSW,9.2,-,N/A,,Clear,250,2013-07-20 23:00:00
8:00 PM,95.0,73.9,50,29.79,-9999.0,SW,5.8,-,N/A,,Clear,230,2013-07-21 00:00:00
9:00 PM,87.1,73.0,63,29.81,-9999.0,Calm,Calm,-,N/A,,Clear,0,2013-07-21 01:00:00
9:34 PM,87.8,73.4,62,29.83,-9999.0,Calm,Calm,-,N/A,Thunderstorm,Thunderstorm,0,2013-07-21 01:34:00
10:00 PM,84.9,73.9,69,29.82,-9999.0,SW,3.5,-,N/A,Thunderstorm,Thunderstorm,220,2013-07-21 02:00:00
10:23 PM,84.2,75.2,74,29.83,-9999.0,Calm,Calm,-,N/A,,Mostly Cloudy,0,2013-07-21 02:23:00
10:32 PM,86.0,75.2,70,29.83,-9999.0,WSW,3.5,-,N/A,Thunderstorm,Thunderstorm,240,2013-07-21 02:32:00
11:00 PM,91.0,73.0,55,29.85,-9999.0,WSW,11.5,-,N/A,Rain-Thunderstorm,Light Thunderstorms and Rain,240,2013-07-21 03:00:00